Temperature
21 21 21 21 20 20 20 19 18 17 16 15 14 13 13 12 12 11 11 11 10 10 10 10 10 9 9 9 9 9 9 9 9 9 9 9 8 8 8 7 7 7 6
21 21 21 21 21 20 20 19 19 18 17 16 15 15 14 13 12 11 11 11 10 10 10 10 10 9 9 9 9 9 9 9 9 9 9 8 8 8 7 7 7 6 6
20 21 21 21 20 20 20 20 19 18 17 17 15 14 12 12 11 11 11 11 10 10 10 10 10 9 9 9 9 9 9 9 9 9 8 8 8 7 7 7 7 6 6
20 20 20 20 20 20 20 20 19 18 18 16 15 14 13 12 12 12 11 11 10 10 10 10 10 9 9 9 9 9 9 9 9 8 8 8 7 7 7 7 6 6 6
20 20 20 20 20 20 20 19 19 18 17 16 15 14 14 13 13 12 11 11 10 10 10 10 10 9 9 9 9 9 9 9 9 8 8 8 7 7 6 6 6 6 6
20 20 20 20 19 19 19 19 18 17 17 16 15 14 14 13 12 12 11 11 10 10 10 10 10 10 9 9 9 9 9 9 9 8 8 7 7 6 6 5 6 6 6
19 19 19 19 19 19 18 18 17 17 16 16 15 14 14 13 13 12 11 11 10 10 10 10 10 10 9 9 9 9 9 9 8 8 8 7 7 6 6 5 5 5 5
19 19 19 19 18 18 18 17 17 16 16 15 14 14 13 13 12 12 11 11 11 10 10 10 10 10 9 9 9 9 9 8 8 8 7 7 6 6 5 5 4 4 4
18 18 18 18 18 18 17 17 16 15 15 14 14 13 12 12 12 11 11 11 10 10 10 10 10 9 9 9 9 9 9 8 8 8 7 7 6 6 5 4 4 3 2
18 18 18 17 17 17 16 16 15 15 14 14 13 12 12 12 11 11 11 10 10 10 10 9 9 9 9 9 9 9 8 8 8 7 7 6 6 5 5 4 4 3 2
18 18 17 17 17 16 16 15 15 14 13 13 12 12 11 11 11 10 10 10 10 10 9 9 9 9 9 9 9 8 8 8 7 7 7 6 6 5 5 4 3 3 2
18 17 17 17 16 16 16 15 14 13 13 12 12 11 11 10 10 10 10 10 9 9 9 9 9 9 9 9 8 8 8 8 7 7 6 6 5 5 4 4 3 3 2
17 17 17 17 17 16 16 15 14 13 12 12 11 11 10 10 10 10 10 9 9 9 9 9 9 9 9 8 8 8 7 7 7 6 6 5 5 4 4 3 3 2 2
17 17 17 17 16 16 15 15 14 13 12 11 11 10 10 10 10 10 9 9 9 9 9 9 9 9 8 8 8 7 7 6 6 6 5 5 4 4 3 3 2 2 1
17 17 17 17 16 16 15 15 14 13 12 11 11 10 10 10 9 9 9 9 9 9 9 8 8 8 8 7 7 7 6 6 6 5 5 4 4 3 3 2 2 1 1
17 17 17 17 16 16 16 15 14 13 12 11 11 10 10 9 9 9 9 9 9 8 8 8 8 8 7 7 6 6 6 5 5 5 4 4 3 3 2 2 1 0 -0
17 17 17 17 17 16 16 15 14 13 12 11 10 10 9 9 9 8 8 8 8 8 8 8 7 7 7 6 6 5 5 5 4 4 3 3 3 2 2 1 1 0 -0
17 17 17 17 17 16 15 15 13 12 11 11 10 10 9 9 8 8 8 8 8 7 7 7 7 6 6 6 5 5 4 4 4 3 3 2 2 1 1 0 -0 -0 -1
18 18 17 17 16 16 15 14 13 12 11 11 10 9 9 8 8 8 8 7 7 7 7 6 6 6 5 5 4 4 4 3 3 2 2 1 1 1 -0 -1 -1 -1 -2
17 17 16 16 16 15 14 14 13 12 11 11 10 9 8 8 8 7 7 7 7 6 6 6 5 5 5 4 4 3 3 2 2 2 1 1 0 -1 -1 -2 -2 -2 -2
16 16 16 15 15 14 14 13 13 12 11 10 9 8 8 7 7 7 6 6 6 5 5 5 5 4 4 3 3 2 2 2 1 1 0 -0 -1 -2 -2 -3 -3 -3 -4
15 15 15 15 14 14 13 13 12 11 10 9 9 8 7 7 6 6 6 5 5 5 4 4 4 3 3 3 2 2 1 0 -0 -0 -1 -1 -2 -2 -3 -3 -4 -4 -5
15 14 14 14 13 13 12 12 11 10 9 9 8 7 7 6 6 5 5 5 4 4 4 3 3 3 2 2 1 1 0 -0 -1 -1 -2 -3 -3 -3 -4 -5 -5 -5 -6
14 14 13 13 12 12 11 11 10 10 9 8 7 7 6 6 5 5 4 4 4 3 3 3 2 2 2 1 1 -0 -0 -1 -2 -2 -3 -3 -4 -4 -5 -6 -6 -6 -7
13 13 13 12 12 11 10 10 9 9 8 7 7 6 5 5 4 4 4 3 3 3 2 2 2 1 1 0 -1 -1 -2 -2 -3 -3 -4 -4 -5 -5 -6 -6 -7 -7 -7
12 12 12 11 11 10 9 9 8 8 7 7 6 5 5 4 4 3 3 2 2 2 1 1 0 0 -1 -1 -2 -2 -3 -3 -4 -5 -5 -5 -6 -6 -7 -7 -8 -8 -8
Wind_Speed
14 11 12 13 13 14 17 20 20 19 17 15 14 14 13 11 10 10 15 18 17 17 14 8 8 7 6 6 6 4 3 1 1 2 3 4 3 2 2 2 2 3 3
11 10 10 10 13 16 18 20 21 20 20 17 15 12 10 8 8 8 12 17 17 17 14 10 7 7 6 6 5 4 3 2 2 3 2 2 4 3 3 2 2 2 3
14 12 10 11 11 15 18 19 21 19 20 16 10 8 6 5 6 9 10 11 16 17 15 13 9 8 7 7 6 6 6 4 1 2 4 3 3 2 3 2 2 2 1
13 11 11 11 12 15 15 17 18 18 17 16 16 17 13 10 10 9 8 9 13 15 16 14 12 9 7 8 7 6 5 5 3 1 1 2 4 2 2 3 3 3 2
12 12 12 11 10 11 12 14 15 16 16 17 19 18 12 9 7 8 10 10 9 12 14 14 12 9 7 8 8 6 6 4 5 4 3 2 1 2 2 3 4 4 3
11 10 8 7 6 7 9 11 14 15 15 17 17 18 16 12 12 11 12 10 7 8 11 12 11 10 8 8 8 7 8 5 5 4 4 4 3 3 3 4 3 4 4
9 9 8 8 8 8 9 11 14 14 15 16 17 17 16 16 16 14 13 11 8 7 10 9 9 9 8 9 8 7 7 7 6 5 4 4 4 3 4 3 3 3 3
9 10 10 10 9 9 10 11 14 13 14 16 15 14 14 13 11 13 12 13 11 9 11 10 10 9 10 10 8 6 6 6 6 6 5 4 4 4 4 4 3 2 3
10 10 9 9 9 10 11 12 13 12 13 14 13 13 14 13 12 12 11 10 9 9 11 11 10 10 10 10 9 6 7 7 6 6 6 4 4 4 4 4 4 4 3
9 9 9 9 9 9 8 9 10 11 11 12 12 11 12 12 12 12 13 12 11 11 12 12 11 11 10 9 8 7 7 7 6 5 6 5 4 4 4 4 4 5 5
10 10 9 8 8 7 8 8 9 9 10 11 11 11 11 11 12 12 13 12 11 12 13 13 12 12 11 10 9 8 8 8 6 5 6 6 5 4 4 4 4 5 5
10 9 9 8 8 8 8 9 9 9 10 10 10 10 11 11 12 12 12 12 13 12 12 12 12 11 11 10 10 9 9 8 8 7 7 7 5 5 5 4 5 5 6
9 8 8 9 9 9 9 9 9 9 9 9 10 10 11 12 13 12 12 12 12 12 11 12 12 11 11 10 9 9 8 8 8 8 8 7 6 6 5 5 6 5 6
10 10 9 9 9 9 10 10 9 9 9 10 10 11 12 12 12 11 12 12 12 13 12 11 11 10 10 9 9 8 8 7 7 7 7 7 7 8 7 6 7 6 6
10 11 11 10 9 9 9 10 10 10 10 10 11 11 10 10 10 11 11 11 11 12 11 10 9 9 8 9 9 8 8 7 6 6 6 7 9 10 8 6 6 6 6
13 12 11 11 11 12 11 11 11 10 10 11 10 9 10 10 10 11 11 11 10 10 10 10 10 9 8 12 14 10 7 7 7 7 6 7 8 10 13 14 13 10 7
13 13 13 13 13 13 12 12 11 10 10 10 10 10 11 11 10 11 11 11 10 9 9 9 9 9 8 12 13 12 7 7 7 7 6 6 6 9 6 11 14 13 16
12 12 11 11 10 9 9 9 9 10 11 10 10 10 11 10 10 11 11 10 8 9 8 8 8 7 7 10 10 10 6 5 6 7 7 7 7 7 7 7 7 8 9
11 11 10 9 9 10 10 10 10 10 10 10 10 11 11 11 11 11 10 7 7 7 6 7 8 7 6 8 8 7 4 4 6 6 6 7 7 12 13 8 7 8 8
8 7 7 7 8 9 11 12 11 11 11 11 10 10 11 11 11 10 8 6 7 7 7 6 6 6 5 7 8 7 4 5 5 5 6 10 10 13 14 8 7 9 9
8 8 9 8 8 10 11 11 10 10 9 9 9 9 9 10 10 8 6 7 7 7 6 5 4 4 4 6 7 7 4 5 5 5 5 6 12 14 15 12 7 12 12
8 9 9 8 7 10 12 11 9 8 9 10 9 9 8 8 8 9 7 7 8 7 5 4 2 2 2 4 5 7 7 6 4 5 5 6 12 13 14 11 13 17 15
10 9 11 10 7 8 10 12 8 10 11 10 9 9 8 7 8 9 8 6 6 5 4 4 3 2 2 3 6 7 8 9 5 5 8 10 12 11 9 12 15 13 7
10 10 12 11 8 7 8 9 10 11 12 11 9 9 9 8 7 6 6 6 6 5 4 4 3 3 2 2 3 3 4 6 6 5 7 10 10 8 9 10 8 6 6
8 10 11 11 10 9 9 9 10 12 12 11 9 8 8 8 7 5 4 5 4 5 5 4 4 3 3 5 5 3 3 3 4 4 2 2 3 4 4 5 5 5 5
10 11 11 11 10 10 10 9 9 12 13 10 8 7 6 6 6 6 4 5 4 4 4 3 3 2 3 4 5 7 8 8 8 4 2 3 4 5 5 5 5 5 6
Wind_Direction
239 232 223 212 201 196 191 190 188 184 179 182 182 184 189 187 187 187 186 186 186 186 181 177 172 169 170 173 163 145 136 111 91 69 7 351 6 39 29 48 79 76 84
246 239 227 206 195 193 192 190 188 184 184 188 188 187 178 179 181 180 186 188 186 184 184 176 173 169 164 162 162 150 140 128 114 124 92 5 346 356 8 22 66 54 55
233 232 223 211 196 194 192 191 190 187 186 181 168 150 138 138 169 187 190 190 187 184 181 178 173 171 169 172 174 165 155 159 139 126 142 151 223 301 331 352 10 1 13
226 222 215 210 201 199 193 190 187 185 184 175 175 174 180 185 187 183 184 182 184 182 180 177 174 171 170 170 174 169 161 150 159 144 120 148 154 163 300 319 327 337 333
219 216 212 208 203 192 187 186 182 183 181 180 181 183 186 183 165 163 173 179 182 180 179 177 174 172 172 171 166 162 161 156 161 163 151 131 105 132 170 268 305 318 295
212 209 206 192 189 180 179 179 179 182 181 181 182 185 183 172 165 172 179 181 179 180 179 175 174 172 170 170 169 166 163 162 158 161 159 159 162 179 177 220 260 284 286
199 195 191 188 184 178 178 178 179 183 182 182 184 187 184 179 179 179 182 179 178 182 184 176 175 173 170 167 162 162 164 164 163 169 176 177 181 167 167 183 230 267 292
201 198 196 192 190 185 179 178 182 183 182 184 186 184 180 182 186 182 181 184 187 184 178 176 175 170 167 166 163 161 168 166 169 176 174 179 190 180 176 176 179 252 292
202 199 194 190 189 187 185 182 181 181 183 184 181 181 181 183 183 180 178 182 179 175 173 174 172 170 169 167 164 168 171 169 176 180 183 187 198 191 191 183 175 183 243
198 195 191 191 192 188 183 178 179 181 180 181 182 184 184 184 180 178 182 181 176 173 173 174 173 171 171 169 167 168 172 172 181 183 186 199 204 201 197 196 196 191 202
196 195 193 192 185 178 175 178 180 178 179 181 180 180 181 180 178 181 183 180 176 174 177 176 173 174 175 172 172 178 177 182 190 191 197 211 205 206 209 203 204 208 201
192 191 188 180 180 182 183 184 183 182 183 180 177 178 176 176 179 182 180 175 176 177 176 173 174 177 178 177 178 182 185 188 195 201 203 217 212 217 219 214 221 225 217
188 187 183 186 189 189 189 188 186 185 180 176 177 176 176 178 181 180 176 174 175 174 173 173 176 179 179 180 183 184 189 195 200 201 206 217 213 229 231 228 232 237 241
188 188 194 198 195 192 191 190 190 184 178 177 178 181 181 181 179 175 174 174 173 173 175 177 178 177 176 179 180 182 189 197 205 208 211 215 215 227 232 236 238 240 247
197 198 199 200 196 193 192 190 189 184 178 177 182 185 179 174 171 171 172 170 171 173 172 170 172 171 175 182 181 184 190 197 209 219 222 225 229 235 239 242 239 235 244
203 204 201 197 198 197 194 189 187 182 176 180 184 175 169 168 169 168 166 165 167 165 165 172 173 177 187 192 193 189 191 199 209 225 234 239 243 253 261 267 269 262 256
206 203 201 201 201 198 191 189 184 172 173 177 173 169 167 167 167 163 162 165 167 163 168 173 175 184 192 194 199 199 192 203 214 223 233 245 249 260 258 271 278 278 277
204 203 202 200 197 187 179 173 164 166 171 172 170 167 164 163 160 161 165 166 163 167 171 175 178 182 195 197 200 203 200 212 223 227 230 238 251 255 261 255 261 262 267
198 198 194 187 177 172 167 158 161 165 168 173 171 168 164 161 162 166 166 160 159 164 169 172 172 178 194 199 204 205 197 220 237 241 238 239 247 266 276 274 268 273 272
177 173 162 152 158 163 154 155 162 166 175 174 168 162 160 162 165 165 158 152 156 161 159 162 170 178 191 207 216 216 198 225 244 250 249 254 260 271 278 271 266 275 276
158 149 142 147 159 153 149 154 159 172 168 151 146 148 153 156 154 149 146 144 143 142 150 158 168 181 198 216 226 228 210 223 239 248 253 255 272 279 283 284 271 277 287
144 140 136 137 140 145 146 150 160 154 137 135 136 139 140 142 140 137 136 138 141 144 151 157 174 201 213 222 237 244 251 256 238 246 249 257 278 285 289 291 290 295 300
145 139 134 128 127 140 145 148 148 135 130 128 131 131 129 129 134 139 139 137 140 147 157 165 194 228 230 241 253 261 267 271 264 256 272 281 288 294 294 295 299 304 300
140 135 131 131 131 131 130 135 134 132 129 129 129 129 128 124 123 128 138 143 151 154 162 180 204 226 246 255 258 255 268 276 279 281 287 295 300 301 299 300 301 293 279
136 136 137 137 135 129 123 126 130 128 126 126 126 124 124 127 123 119 131 146 165 169 173 188 190 197 238 258 267 269 258 258 262 288 282 284 288 284 283 286 283 279 283
136 133 131 132 131 127 124 125 128 130 129 128 126 126 124 121 122 118 92 78 102 123 130 140 158 211 256 292 297 296 296 297 300 303 287 279 276 277 281 285 286 282 281
Height
1463 1465 1468 1470 1472 1474 1477 1479 1482 1485 1489 1493 1496 1499 1503 1506 1510 1513 1517 1520 1523 1525 1528 1530 1532 1533 1535 1536 1537 1538 1538 1538 1538 1538 1538 1537 1537 1536 1536 1535 1535 1534 1533
1456 1458 1460 1462 1464 1467 1469 1472 1475 1479 1482 1485 1489 1493 1497 1501 1506 1510 1513 1516 1519 1522 1524 1526 1529 1530 1532 1534 1535 1535 1535 1536 1536 1536 1536 1536 1536 1535 1534 1534 1533 1533 1532
1448 1451 1453 1455 1457 1460 1462 1465 1469 1472 1476 1480 1485 1490 1495 1499 1502 1505 1508 1512 1515 1518 1520 1523 1525 1527 1529 1530 1532 1533 1533 1533 1534 1534 1534 1533 1533 1533 1533 1532 1531 1531 1530
1441 1444 1446 1448 1450 1453 1456 1459 1463 1467 1471 1475 1478 1482 1485 1489 1492 1497 1502 1507 1511 1514 1517 1520 1522 1524 1526 1527 1529 1530 1530 1531 1531 1531 1531 1531 1531 1531 1530 1530 1529 1528 1527
1434 1436 1439 1442 1444 1447 1450 1454 1457 1461 1465 1469 1472 1476 1480 1484 1489 1494 1498 1503 1506 1510 1513 1516 1518 1520 1522 1524 1525 1526 1527 1527 1528 1528 1528 1528 1528 1528 1528 1527 1526 1525 1524
1428 1431 1434 1436 1439 1442 1445 1448 1452 1455 1459 1463 1466 1470 1475 1479 1484 1488 1493 1497 1501 1505 1508 1511 1514 1516 1519 1520 1522 1523 1524 1524 1525 1525 1525 1525 1525 1524 1524 1523 1522 1521 1520
1424 1426 1429 1431 1434 1437 1440 1443 1446 1450 1453 1457 1461 1465 1470 1474 1478 1483 1487 1492 1496 1499 1503 1507 1510 1512 1515 1517 1518 1519 1520 1521 1521 1522 1522 1522 1521 1521 1521 1520 1518 1516 1515
1419 1422 1424 1427 1430 1432 1435 1438 1441 1444 1448 1452 1456 1461 1465 1470 1474 1478 1483 1487 1491 1495 1499 1502 1506 1508 1511 1513 1514 1515 1516 1517 1518 1518 1518 1518 1518 1518 1517 1516 1515 1513 1511
1415 1418 1420 1423 1426 1428 1430 1433 1436 1439 1443 1447 1451 1455 1460 1465 1469 1474 1478 1483 1487 1491 1495 1498 1501 1504 1506 1508 1510 1511 1513 1513 1514 1515 1515 1515 1514 1514 1513 1512 1511 1511 1507
1411 1414 1417 1419 1422 1425 1427 1429 1432 1435 1439 1442 1446 1451 1455 1460 1465 1469 1474 1478 1482 1486 1490 1493 1496 1499 1502 1504 1506 1508 1509 1510 1510 1511 1511 1511 1511 1510 1509 1508 1507 1505 1503
1408 1410 1413 1416 1419 1421 1424 1426 1428 1431 1434 1438 1442 1446 1451 1456 1461 1465 1469 1474 1478 1482 1485 1489 1492 1495 1497 1500 1502 1503 1504 1505 1506 1507 1507 1507 1506 1506 1505 1503 1502 1501 1498
1405 1408 1411 1414 1416 1418 1420 1422 1424 1427 1430 1434 1438 1442 1447 1452 1456 1460 1465 1469 1473 1477 1481 1484 1488 1490 1493 1495 1497 1499 1500 1501 1502 1502 1502 1502 1502 1501 1500 1498 1497 1495 1493
1402 1405 1408 1410 1413 1415 1417 1419 1421 1424 1427 1431 1435 1439 1443 1447 1452 1456 1461 1465 1469 1473 1477 1480 1483 1486 1489 1491 1493 1495 1496 1497 1498 1498 1498 1497 1497 1496 1494 1493 1491 1489 1487
1399 1402 1405 1407 1410 1412 1414 1416 1418 1421 1424 1428 1431 1435 1439 1443 1448 1453 1457 1461 1465 1469 1472 1476 1479 1482 1484 1487 1488 1490 1491 1492 1493 1493 1493 1492 1491 1490 1489 1487 1485 1483 1481
1396 1398 1401 1404 1407 1409 1411 1413 1416 1418 1421 1424 1428 1431 1436 1441 1445 1449 1453 1457 1461 1465 1469 1472 1475 1477 1480 1482 1484 1485 1487 1487 1488 1488 1488 1487 1486 1485 1483 1481 1479 1477 1474
1391 1394 1397 1400 1403 1405 1407 1410 1412 1415 1418 1421 1425 1429 1433 1437 1441 1445 1450 1454 1457 1461 1464 1467 1470 1473 1475 1477 1479 1481 1482 1482 1483 1483 1483 1482 1481 1479 1477 1476 1473 1472 1469
1387 1390 1393 1396 1399 1401 1404 1406 1409 1412 1415 1418 1422 1426 1430 1433 1438 1442 1446 1450 1453 1457 1460 1463 1466 1469 1471 1473 1475 1476 1477 1477 1478 1477 1477 1476 1475 1473 1471 1469 1467 1465 1463
1383 1386 1389 1392 1395 1398 1401 1403 1406 1409 1412 1415 1419 1423 1426 1430 1435 1439 1442 1446 1450 1453 1456 1459 1462 1465 1467 1469 1470 1471 1472 1472 1472 1472 1471 1469 1468 1466 1464 1461 1459 1457 1455
1378 1381 1385 1388 1391 1394 1397 1400 1403 1406 1409 1412 1415 1419 1423 1427 1431 1435 1439 1442 1446 1449 1452 1455 1458 1461 1463 1465 1466 1466 1466 1466 1466 1465 1464 1463 1461 1460 1457 1454 1451 1448 1447
1374 1377 1381 1384 1387 1390 1393 1396 1399 1402 1405 1409 1413 1417 1421 1425 1428 1432 1436 1439 1443 1446 1449 1452 1454 1457 1458 1460 1461 1461 1460 1460 1459 1459 1458 1456 1454 1452 1450 1448 1444 1441 1439
1369 1373 1376 1380 1383 1387 1390 1393 1396 1399 1403 1407 1411 1415 1418 1422 1426 1430 1433 1436 1439 1442 1445 1448 1450 1452 1454 1455 1455 1455 1455 1454 1453 1452 1450 1449 1448 1445 1443 1441 1438 1435 1432
1365 1369 1372 1376 1380 1384 1387 1390 1394 1398 1402 1405 1409 1412 1416 1420 1423 1427 1430 1433 1436 1439 1441 1443 1446 1447 1448 1449 1449 1449 1449 1448 1446 1445 1443 1442 1440 1438 1436 1434 1431 1429 1426
1361 1365 1369 1373 1378 1382 1385 1388 1392 1396 1400 1403 1407 1411 1414 1418 1421 1425 1427 1430 1433 1435 1437 1439 1441 1442 1443 1444 1444 1444 1443 1442 1440 1438 1437 1435 1433 1430 1428 1426 1424 1421 1418
1357 1362 1367 1371 1375 1380 1384 1388 1391 1395 1398 1402 1406 1409 1413 1416 1419 1423 1425 1428 1430 1432 1433 1435 1436 1437 1438 1438 1438 1437 1436 1435 1433 1432 1430 1428 1425 1423 1421 1419 1416 1414 1411
1355 1360 1365 1369 1374 1378 1382 1386 1390 1394 1397 1401 1404 1408 1411 1415 1418 1421 1423 1425 1427 1429 1430 1431 1432 1432 1432 1433 1432 1431 1430 1428 1427 1424 1422 1420 1418 1416 1414 1411 1409 1407 1404
1353 1359 1364 1368 1373 1377 1381 1386 1390 1393 1396 1400 1403 1407 1410 1413 1416 1419 1421 1423 1425 1426 1427 1427 1428 1427 1428 1427 1426 1425 1423 1422 1420 1418 1415 1413 1411 1409 1407 1404 1402 1400 1398